Weather History for Darwin Airport, Northern Territory

Change the Weather History Date:

Wednesday, January 8, 2014

  Actual Average Record
Temperature  
Mean Temperature 88 °F -  
Max Temperature 93 °F 89 °F - ()
Min Temperature 82 °F 77 °F - ()
Cooling Degree Days 22    
Growing Degree Days 38 (Base 50)    
Moisture  
Dew Point 78 °F    
Average Humidity 74    
Maximum Humidity 94    
Minimum Humidity 47    
Precipitation  
Precipitation 0.00 in 0.54 in - ()
Sea Level Pressure  
Sea Level Pressure 29.67 in    
Wind  
Wind Speed 10 mph ()    
Max Wind Speed 20 mph    
Max Gust Speed -    
Visibility 8.4 miles    
Events      
T = Trace of Precipitation, MM = Missing Value Source: Averaged Metar Reports

Daily Weather History Graph

Daily Weather History Graph

Search for Another Location

Airport:

Trip Planner

Search our weather history database for the weather conditions in past years. The results will help you decide how hot, cold, wet, or windy it might be!

Date:

Astronomy

Jan. 08, 2014 Rise Set
Actual Time 6:28 AM ACST 7:17 PM ACST
Civil Twilight 6:05 AM ACST 7:40 PM ACST
Nautical Twilight 5:38 AM ACST 8:07 PM ACST
Astronomical Twilight 5:10 AM ACST 8:35 PM ACST
Moon 12:46 PM ACST (1/8) No Moon Set
Length of Visible Light 13h 35m
Length of Day
12h 49m
Waxing Crescent, 49% of the Moon is Illuminated
Jan 8
Waxing Crescent
Jan 8
First Quarter
Jan 16
Full
Jan 24
Last Quarter
Jan 31
New

Hourly Weather History & Observations

Time (ACST) Temp. Heat Index Dew Point Humidity Pressure Visibility Wind Dir Wind Speed Gust Speed Precip Events Conditions
12:00 AM 84 °F - 80 °F 84% 29.71 in 19 mi West 8.1 mph - -   Partly Cloudy
12:00 AM 84.2 °F 98.3 °F 80.6 °F 89% 29.71 in - West 8.1 mph - N/A   Clear
12:30 AM 84 °F - 80 °F 85% 29.70 in - West 8.1 mph - -  
12:30 AM 84.2 °F 98.3 °F 80.6 °F 89% 29.71 in 6.2 mi West 8.1 mph - N/A   Scattered Clouds
1:00 AM 84.2 °F 98.3 °F 80.6 °F 89% 29.68 in - West 9.2 mph - N/A   Clear
1:30 AM 84.2 °F 98.3 °F 80.6 °F 89% 29.68 in 6.2 mi WSW 8.1 mph - N/A   Scattered Clouds
2:00 AM 84.2 °F 98.3 °F 80.6 °F 89% 29.68 in 6.2 mi West 6.9 mph - N/A   Scattered Clouds
2:30 AM 84.2 °F 98.3 °F 80.6 °F 89% 29.68 in 6.2 mi West 8.1 mph - N/A   Scattered Clouds
3:00 AM 83 °F - 80 °F 88% 29.66 in 19 mi West 8.1 mph - -   Partly Cloudy
3:00 AM 82.4 °F 94.0 °F 80.6 °F 94% 29.65 in 6.2 mi West 8.1 mph - N/A   Scattered Clouds
3:30 AM 83 °F - 80 °F 88% 29.66 in - West 8.1 mph - -  
3:30 AM 82.4 °F 94.0 °F 80.6 °F 94% 29.65 in 6.2 mi West 8.1 mph - N/A   Scattered Clouds
4:00 AM 82.4 °F 94.0 °F 80.6 °F 94% 29.65 in 6.2 mi West 9.2 mph - N/A   Scattered Clouds
4:30 AM 82.4 °F 94.0 °F 80.6 °F 94% 29.65 in 6.2 mi West 10.4 mph - N/A   Scattered Clouds
5:00 AM 82.4 °F 94.0 °F 80.6 °F 94% 29.65 in 6.2 mi West 10.4 mph - N/A   Scattered Clouds
5:30 AM 82.4 °F 94.0 °F 80.6 °F 94% 29.68 in 6.2 mi West 10.4 mph - N/A   Scattered Clouds
6:00 AM 83 °F - 80 °F 86% 29.68 in 19 mi West 10.4 mph - -   Partly Cloudy
6:00 AM 82.4 °F 92.4 °F 78.8 °F 89% 29.68 in 6.2 mi West 10.4 mph - N/A   Scattered Clouds
6:30 AM 83 °F - 79 °F 86% 29.69 in - West 9.2 mph - -  
6:30 AM 82.4 °F 92.4 °F 78.8 °F 89% 29.68 in - West 9.2 mph - N/A   Clear
7:00 AM 84.2 °F 96.1 °F 78.8 °F 84% 29.71 in 6.2 mi WSW 8.1 mph - N/A   Mostly Cloudy
7:30 AM 84.2 °F 96.1 °F 78.8 °F 84% 29.71 in 6.2 mi SW 8.1 mph - N/A   Scattered Clouds
8:00 AM 86.0 °F 99.3 °F 78.8 °F 79% 29.71 in 6.2 mi WSW 10.4 mph - N/A   Scattered Clouds
8:30 AM 86.0 °F 99.3 °F 78.8 °F 79% 29.71 in 6.2 mi WSW 10.4 mph - N/A   Mostly Cloudy
9:00 AM 88 °F - 78 °F 65% 29.72 in 19 mi WSW 10.4 mph - -   Partly Cloudy
9:00 AM 87.8 °F 102.5 °F 78.8 °F 75% 29.71 in 6.2 mi WSW 10.4 mph - N/A   Scattered Clouds
9:30 AM 89 °F - 79 °F 66% 29.73 in - West 9.2 mph - -  
9:30 AM 89.6 °F 104.7 °F 78.8 °F 70% 29.71 in 6.2 mi West 9.2 mph - N/A   Scattered Clouds
10:00 AM 89.6 °F 102.2 °F 77.0 °F 66% 29.71 in 6.2 mi WSW 10.4 mph - N/A   Scattered Clouds
10:30 AM 91.4 °F 105.1 °F 77.0 °F 63% 29.71 in 6.2 mi West 10.4 mph - N/A   Scattered Clouds
11:00 AM 91.4 °F 102.5 °F 75.2 °F 59% 29.71 in 6.2 mi West 9.2 mph - N/A   Scattered Clouds
11:30 AM 93.2 °F 105.0 °F 75.2 °F 56% 29.71 in 6.2 mi West 11.5 mph - N/A   Partly Cloudy
12:00 PM 93 °F - 75 °F 47% 29.70 in 19 mi WNW 16.1 mph - -   Partly Cloudy
12:00 PM 93.2 °F 105.0 °F 75.2 °F 56% 29.71 in 6.2 mi WNW 16.1 mph - N/A   Scattered Clouds
12:30 PM 92 °F - 78 °F 56% 29.70 in - WNW 17.3 mph - -  
12:30 PM 93.2 °F 110.2 °F 78.8 °F 63% 29.68 in 6.2 mi WNW 17.3 mph - N/A   Mostly Cloudy
1:00 PM 93.2 °F 110.2 °F 78.8 °F 63% 29.68 in 6.2 mi WNW 18.4 mph - N/A   Unknown
1:30 PM 93.2 °F 110.2 °F 78.8 °F 63% 29.65 in 6.2 mi WNW 18.4 mph - N/A   Scattered Clouds
2:00 PM 93.2 °F 110.2 °F 78.8 °F 63% 29.65 in 6.2 mi WNW 19.6 mph - N/A   Scattered Clouds
2:30 PM 93.2 °F 110.2 °F 78.8 °F 63% 29.62 in 6.2 mi WNW 19.6 mph - N/A   Mostly Cloudy
3:00 PM 92 °F - 79 °F 58% 29.62 in 19 mi WNW 19.6 mph - -   Partly Cloudy
3:00 PM 93.2 °F 110.2 °F 78.8 °F 63% 29.62 in 6.2 mi WNW 19.6 mph - N/A   Mostly Cloudy
3:30 PM 93 °F - 79 °F 56% 29.62 in - WNW 18.4 mph - -  
3:30 PM 93.2 °F 110.2 °F 78.8 °F 63% 29.62 in 6.2 mi WNW 18.4 mph - N/A   Mostly Cloudy
4:00 PM 91.4 °F 107.2 °F 78.8 °F 66% 29.62 in 6.2 mi WNW 18.4 mph - N/A   Mostly Cloudy
4:30 PM 91.4 °F 107.2 °F 78.8 °F 66% 29.59 in 6.2 mi WNW 17.3 mph - N/A   Mostly Cloudy
5:00 PM 91.4 °F 107.2 °F 78.8 °F 66% 29.62 in 6.2 mi WNW 17.3 mph - N/A   Mostly Cloudy
5:30 PM 91.4 °F 107.2 °F 78.8 °F 66% 29.62 in 6.2 mi WNW 17.3 mph - N/A   Mostly Cloudy
6:00 PM 90 °F - 78 °F 60% 29.62 in 19 mi West 15.0 mph - -   Partly Cloudy
6:00 PM 89.6 °F 104.7 °F 78.8 °F 70% 29.62 in - West 15.0 mph - N/A   Clear
6:30 PM 89 °F - 78 °F 62% 29.64 in - West 16.1 mph - -  
6:30 PM 89.6 °F 102.2 °F 77.0 °F 66% 29.62 in 6.2 mi West 16.1 mph - N/A   Mostly Cloudy
7:00 PM 87.8 °F 99.7 °F 77.0 °F 70% 29.65 in 6.2 mi West 13.8 mph - N/A   Mostly Cloudy
7:30 PM 86.0 °F 96.9 °F 77.0 °F 74% 29.65 in 6.2 mi West 12.7 mph - N/A   Mostly Cloudy
8:00 PM 86.0 °F 95.1 °F 75.2 °F 70% 29.65 in 6.2 mi West 11.5 mph - N/A   Mostly Cloudy
8:30 PM 86.0 °F 95.1 °F 75.2 °F 70% 29.68 in - West 10.4 mph - N/A   Clear
9:00 PM 85 °F - 75 °F 66% 29.68 in 19 mi West 8.1 mph - -   Partly Cloudy
9:00 PM 86.0 °F 95.1 °F 75.2 °F 70% 29.68 in - West 8.1 mph - N/A   Clear
9:30 PM 85 °F - 75 °F 65% 29.69 in - West 9.2 mph - -  
9:30 PM 86.0 °F 95.1 °F 75.2 °F 70% 29.68 in - West 9.2 mph - N/A   Clear
10:00 PM 84.2 °F 92.3 °F 75.2 °F 74% 29.68 in - West 10.4 mph - N/A   Clear
10:30 PM 86.0 °F 95.1 °F 75.2 °F 70% 29.68 in 6.2 mi West 10.4 mph - N/A   Mostly Cloudy
11:00 PM 84.2 °F 94.1 °F 77.0 °F 79% 29.68 in 6.2 mi West 10.4 mph - N/A   Scattered Clouds
11:30 PM 84.2 °F 94.1 °F 77.0 °F 79% 29.68 in - West 10.4 mph - N/A   Clear